#timestamp,LO_Frequency,Hit,StdDev 
1568210415.6,286046996.2,N
1568210435.4,286046997.3,N
1568210455.3,286047001.0,N
1568210475.1,286047001.0,N
1568210495.9,286046997.0,N
1568210515.7,286046997.7,N
1568210535.5,286046997.0,N
1568210555.4,286046998.8,N
1568210575.2,286046999.3,N
1568210595.0,286046997.7,N
1568210595.9,286046997.7,N
1568210615.8,286046995.5,N
1568210635.6,286046993.6,N
1568210655.5,286046996.1,N
1568210675.3,286046995.4,N
1568210695.1,286046998.5,N
1568210715.9,286046999.8,N
1568210735.7,286047003.4,N
1568210755.5,286047007.1,N
1568210775.4,286047006.6,N
1568210795.2,286047006.7,N
1568210815.1,286047003.6,N
1568210816.0,286047003.6,N
1568210835.8,286047001.4,N
1568210855.6,286047000.8,N
1568210875.5,286046996.5,N
1568210895.3,286046998.5,N
1568210915.1,286047004.1,N
1568210935.9,286047002.9,N
1568210955.7,286047002.1,N
1568210975.6,286046999.3,N
1568210995.4,286046995.1,N
1568211015.2,286046995.4,N
1568211035.1,286046997.7,N
1568211036.0,286046997.7,N
1568211055.8,286046995.2,N
1568211075.6,286046992.3,N
1568211095.5,286046996.3,N
1568211115.3,286046997.4,N
1568211135.2,286046999.4,N
1568211155.9,286047002.0,N
1568211175.7,286047005.8,N
1568211195.6,286047002.9,N
1568211215.4,286047003.1,N
1568211235.2,286047000.2,N
1568211255.1,286046998.6,N
1568211256.0,286046998.6,N
1568211275.8,286046998.4,N
1568211295.7,286046999.9,N
1568211315.5,286047000.7,N
1568211335.3,286047000.8,N
1568211355.2,286046997.3,N
1568211375.0,286046996.1,N
1568211375.9,286046996.1,N
1568211395.7,286046999.5,N
1568211415.6,286046999.8,N
1568211435.4,286046999.9,N
1568211455.3,286047000.7,N
1568211475.1,286047000.0,N
1568211476.0,286047000.0,N
1568211495.8,286047000.7,N
1568211515.7,286047001.4,N
1568211535.5,286047002.6,N
1568211555.3,286047003.4,N
1568211575.2,286047004.2,N
1568211595.0,286047005.5,N
1568211595.9,286047005.5,N
1568211615.8,286047006.5,N
1568211635.6,286047006.9,N
1568211655.4,286047004.6,N
1568211675.3,286047003.6,N
1568211695.1,286047004.0,N
1568211715.8,286047001.4,N
1568211735.7,286047002.3,N
1568211755.5,286047002.5,N
1568211775.4,286047001.2,N
1568211795.2,286046999.0,N
1568211815.0,286046997.0,N
1568211815.9,286046997.0,N
1568211835.8,286046996.7,N
1568211855.6,286046997.6,N
1568211875.5,286046998.0,N
1568211895.3,286046996.6,N
1568211915.1,286046995.3,N
1568211935.9,286046997.9,N
1568211955.7,286046998.9,N
1568211975.6,286046996.7,N
1568211995.4,286046996.1,N
1568212015.2,286046993.7,N
1568212035.1,286046994.8,N
1568212036.0,286046994.8,N
1568212055.8,286046992.8,N
1568212075.7,286046990.8,N
1568212095.5,286046990.7,N
1568212115.3,286046990.3,N
1568212135.2,286046990.3,N
1568212155.0,286046992.7,N
1568212155.9,286046992.7,N
1568212175.7,286046992.0,N
1568212195.6,286046992.3,N
1568212215.4,286046992.4,N
1568212235.3,286046992.1,N
1568212255.1,286046990.6,N
1568212256.0,286046990.6,N
1568212275.8,286046993.2,N
1568212295.7,286046992.8,N
1568212315.5,286046992.2,N
1568212335.3,286046993.8,N
1568212355.2,286046991.7,Y
1568212375.0,286046999.6,P
1568212375.9,286046999.6,N
1568212395.8,286046996.9,N
1568212415.6,286046999.2,N
1568212435.4,286046998.4,N
1568212455.3,286046999.3,N
1568212475.1,286046999.4,N
1568212495.9,286047001.1,N
1568212515.7,286046999.2,N
1568212535.5,286046996.6,N
1568212555.4,286046995.5,N
1568212575.2,286046996.4,N
1568212595.0,286046995.7,N
1568212595.9,286046995.7,N
1568212615.8,286046993.8,Y
1568212635.6,286046995.6,P
1568212655.5,286046995.6,P
1568212675.3,286046993.3,P
1568212695.1,286046997.5,N
1568212715.9,286046996.6,N
1568212735.7,286046998.6,N
1568212755.5,286047002.4,N
1568212775.4,286047001.5,N
1568212795.2,286047002.9,N
1568212815.1,286047003.0,N
1568212816.0,286047003.0,N
1568212835.8,286047005.7,N
1568212855.6,286047003.7,N
1568212875.5,286047003.7,N
1568212895.3,286047003.7,N
1568212915.1,286047003.5,N
1568212935.9,286047002.9,N
1568212955.7,286047003.8,N
1568212975.6,286047003.8,N
1568212995.4,286047002.5,N
1568213015.2,286047001.6,N
1568213035.1,286047004.3,N
1568213036.0,286047004.3,N
1568213055.8,286047003.9,N
1568213075.6,286047001.4,N
1568213095.5,286047001.5,N
1568213115.3,286047003.1,N
1568213135.2,286047006.3,N
1568213155.9,286047008.6,N
1568213175.7,286047008.9,N
1568213195.6,286047006.5,N
1568213215.4,286047005.0,N
1568213235.2,286047006.8,N
1568213255.1,286047006.2,N
1568213256.0,286047006.2,N
1568213275.8,286047008.7,Y
1568213295.7,286047008.9,P
1568213315.5,286047006.1,N
1568213335.3,286047009.0,P
1568213355.2,286047006.6,Y
1568213375.0,286046999.8,P
1568213375.9,286046999.8,N
1568213395.8,286046999.8,N
1568213415.6,286046998.5,N
1568213435.4,286046996.5,N
1568213455.3,286046997.1,N
1568213475.1,286046996.8,N
1568213495.8,286046999.2,N
1568213515.7,286047000.8,N
1568213535.5,286046999.7,N
1568213555.4,286047005.9,N
1568213575.2,286047005.8,N
1568213595.0,286047004.6,N
1568213595.9,286047004.6,N
1568213615.8,286047004.2,N
1568213635.6,286047002.5,N
1568213655.4,286047000.0,N
1568213675.3,286047002.3,N
1568213695.1,286047005.3,N
1568213715.9,286047007.2,N
1568213735.7,286047005.2,N
1568213755.5,286047001.3,N
1568213775.4,286047001.8,N
1568213795.2,286047000.0,N
1568213815.0,286046998.2,N
1568213815.9,286046998.2,N
1568213835.8,286046998.1,N
1568213855.6,286046998.5,N
1568213875.5,286046998.5,N
1568213895.3,286046997.9,N
1568213915.1,286046997.3,N
1568213935.9,286046995.1,N
1568213955.7,286046993.5,N
1568213975.5,286046993.3,N
1568213995.4,286046994.0,N
